Zurück zum Katalog

STARLINK-30560

AktivKommunikationVLEO
NORAD 58038·PAYLOAD·🇺🇸 United States

Gestartet Oct 9, 2023 von Vandenberg Space Force Base

Loading…

Nächste Überflüge (nächste 24 Stunden)

TLE

AktuellSource: CelesTrak SupGP

Epoche: Sep 15, 2026, 03:24 UTC

1 58038C 23156L   26258.14215278 -.00018216  00000+0 -53804-3 0  2584
2 58038  53.1573 274.6223 0001151  92.8435 314.0178 15.34409751    19

Verfolge STARLINK-30560 in Echtzeit mit AllMySat

Download on the App Store